Time,TemperatureF,DewpointF,PressureIn,WindDirection,WindDirectionDegrees,WindSpeedMPH,WindSpeedGustMPH,Humidity,HourlyPrecipIn,Conditions,Clouds,dailyrainin,SoftwareType,DateUTC
2013-01-09 00:00:00,51.0,45.4,30.33,East,91,2.0,4.0,81,0.00,,---,0.00,VWS V14.01,2013-01-09 05:00:00,
2013-01-09 00:15:00,51.1,45.2,30.33,ESE,104,0.0,3.0,80,0.00,,---,0.00,VWS V14.01,2013-01-09 05:15:00,
2013-01-09 00:30:00,50.4,44.8,30.32,East,101,0.0,0.0,81,0.00,,---,0.00,VWS V14.01,2013-01-09 05:30:00,
2013-01-09 00:45:00,50.0,45.0,30.32,East,94,0.0,1.0,83,0.00,,---,0.00,VWS V14.01,2013-01-09 05:45:00,
2013-01-09 01:00:00,49.5,44.9,30.32,East,93,0.0,1.0,84,0.00,,---,0.00,VWS V14.01,2013-01-09 06:00:00,
2013-01-09 01:15:00,48.9,44.6,30.33,East,93,0.0,0.0,85,0.00,,---,0.00,VWS V14.01,2013-01-09 06:15:00,
2013-01-09 01:30:00,48.4,44.1,30.33,East,94,0.0,1.0,85,0.00,,---,0.00,VWS V14.01,2013-01-09 06:30:00,
2013-01-09 01:45:00,47.6,43.9,30.33,East,91,0.0,1.0,87,0.00,,---,0.00,VWS V14.01,2013-01-09 06:45:00,
2013-01-09 02:00:00,46.5,43.1,30.34,NW,305,1.0,2.0,88,0.00,,---,0.00,VWS V14.01,2013-01-09 07:00:00,
2013-01-09 02:15:00,45.8,42.8,30.34,NW,324,1.0,2.0,89,0.00,,---,0.00,VWS V14.01,2013-01-09 07:15:00,
2013-01-09 02:30:00,45.4,42.6,30.35,NW,324,0.0,1.0,90,0.00,,---,0.00,VWS V14.01,2013-01-09 07:30:00,
2013-01-09 02:45:00,45.3,42.5,30.34,NNW,336,1.0,1.0,90,0.00,,---,0.00,VWS V14.01,2013-01-09 07:45:00,
2013-01-09 03:00:00,45.3,42.5,30.34,NNW,340,1.0,2.0,90,0.00,,---,0.00,VWS V14.01,2013-01-09 08:00:00,
2013-01-09 03:15:00,45.5,42.5,30.34,NNE,23,1.0,1.0,89,0.00,,---,0.00,VWS V14.01,2013-01-09 08:15:00,
2013-01-09 03:30:00,45.8,42.8,30.34,NNW,329,0.0,2.0,89,0.00,,---,0.00,VWS V14.01,2013-01-09 08:30:00,
2013-01-09 03:45:00,45.5,42.5,30.34,NNW,345,1.0,3.0,89,0.00,,---,0.00,VWS V14.01,2013-01-09 08:45:00,
2013-01-09 04:01:00,45.3,42.3,30.34,North,353,2.0,4.0,89,0.00,,---,0.00,VWS V14.01,2013-01-09 09:01:00,
2013-01-09 04:15:00,45.2,42.2,30.33,North,354,1.0,3.0,89,0.00,,---,0.00,VWS V14.01,2013-01-09 09:15:00,
2013-01-09 04:30:00,45.3,42.3,30.34,NNE,15,1.0,3.0,89,0.00,,---,0.00,VWS V14.01,2013-01-09 09:30:00,
2013-01-09 04:45:00,44.9,41.9,30.34,NNW,328,1.0,2.0,89,0.00,,---,0.00,VWS V14.01,2013-01-09 09:45:00,
2013-01-09 05:00:00,44.3,41.8,30.34,NNW,340,1.0,3.0,91,0.00,,---,0.00,VWS V14.01,2013-01-09 10:00:00,
2013-01-09 05:15:00,44.2,41.7,30.33,North,8,2.0,3.0,91,0.00,,---,0.00,VWS V14.01,2013-01-09 10:15:00,
2013-01-09 05:30:00,44.6,42.1,30.33,North,1,2.0,3.0,91,0.00,,---,0.00,VWS V14.01,2013-01-09 10:30:00,
2013-01-09 05:45:00,44.5,42.0,30.33,NNE,15,2.0,3.0,91,0.00,,---,0.00,VWS V14.01,2013-01-09 10:45:00,
2013-01-09 06:00:00,44.5,41.8,30.34,NNE,32,0.0,2.0,90,0.00,,---,0.00,VWS V14.01,2013-01-09 11:00:00,
2013-01-09 06:15:00,43.8,41.3,30.34,NNE,32,0.0,1.0,91,0.00,,---,0.00,VWS V14.01,2013-01-09 11:15:00,
2013-01-09 06:30:00,44.5,42.0,30.34,North,6,2.0,3.0,91,0.00,,---,0.00,VWS V14.01,2013-01-09 11:30:00,
2013-01-09 06:45:00,44.6,41.8,30.34,NNE,19,0.0,3.0,90,0.00,,---,0.00,VWS V14.01,2013-01-09 11:45:00,
2013-01-09 07:00:00,44.1,41.4,30.35,NNE,18,1.0,1.0,90,0.00,,---,0.00,VWS V14.01,2013-01-09 12:00:00,
2013-01-09 07:15:00,43.7,41.2,30.35,North,8,1.0,2.0,91,0.00,,---,0.00,VWS V14.01,2013-01-09 12:15:00,
2013-01-09 07:30:00,43.7,41.2,30.36,NNW,337,2.0,3.0,91,0.00,,---,0.00,VWS V14.01,2013-01-09 12:30:00,
2013-01-09 07:45:00,43.2,40.8,30.37,NW,324,1.0,2.0,91,0.00,,---,0.00,VWS V14.01,2013-01-09 12:45:00,
2013-01-09 08:00:00,43.3,41.1,30.37,North,354,2.0,3.0,92,0.00,,---,0.00,VWS V14.01,2013-01-09 13:00:00,
2013-01-09 08:15:00,43.9,41.5,30.38,North,356,3.0,3.0,91,0.00,,---,0.00,VWS V14.01,2013-01-09 13:15:00,
2013-01-09 08:30:00,44.5,41.8,30.39,North,8,0.0,3.0,90,0.00,,---,0.00,VWS V14.01,2013-01-09 13:30:00,
2013-01-09 08:45:00,45.2,42.5,30.39,NW,311,0.0,2.0,90,0.00,,---,0.00,VWS V14.01,2013-01-09 13:45:00,
2013-01-09 09:00:00,46.1,43.0,30.40,NW,319,2.0,2.0,89,0.00,,---,0.00,VWS V14.01,2013-01-09 14:00:00,
2013-01-09 09:15:00,47.4,43.7,30.41,NNW,336,0.0,2.0,87,0.00,,---,0.00,VWS V14.01,2013-01-09 14:15:00,
2013-01-09 09:30:00,48.9,44.9,30.41,North,356,1.0,3.0,86,0.00,,---,0.00,VWS V14.01,2013-01-09 14:30:00,
2013-01-09 09:45:00,50.3,45.7,30.42,NW,305,1.0,4.0,84,0.00,,---,0.00,VWS V14.01,2013-01-09 14:45:00,
2013-01-09 10:00:00,51.6,46.0,30.42,NNW,336,1.0,3.0,81,0.00,,---,0.00,VWS V14.01,2013-01-09 15:00:00,
2013-01-09 10:15:00,53.3,47.3,30.42,NE,49,1.0,5.0,80,0.00,,---,0.00,VWS V14.01,2013-01-09 15:15:00,
2013-01-09 10:30:00,55.2,48.1,30.42,NW,304,1.0,3.0,77,0.00,,---,0.00,VWS V14.01,2013-01-09 15:30:00,
2013-01-09 10:45:00,56.6,48.8,30.42,WNW,299,1.0,5.0,75,0.00,,---,0.00,VWS V14.01,2013-01-09 15:45:00,
2013-01-09 11:00:00,58.1,49.5,30.42,NNW,346,2.0,3.0,73,0.00,,---,0.00,VWS V14.01,2013-01-09 16:00:00,
2013-01-09 11:15:00,59.2,50.2,30.41,NNE,23,0.0,3.0,72,0.00,,---,0.00,VWS V14.01,2013-01-09 16:15:00,
2013-01-09 11:30:00,60.6,50.8,30.41,North,4,0.0,5.0,70,0.00,,---,0.00,VWS V14.01,2013-01-09 16:30:00,
2013-01-09 11:45:00,62.7,52.0,30.40,North,349,1.0,3.0,68,0.00,,---,0.00,VWS V14.01,2013-01-09 16:45:00,
2013-01-09 12:00:00,64.3,53.1,30.39,NW,311,1.0,4.0,67,0.00,,---,0.00,VWS V14.01,2013-01-09 17:00:00,
2013-01-09 12:15:00,65.4,54.2,30.38,NE,38,1.0,4.0,67,0.00,,---,0.00,VWS V14.01,2013-01-09 17:15:00,
2013-01-09 12:30:00,66.7,55.4,30.37,North,4,2.0,3.0,67,0.00,,---,0.00,VWS V14.01,2013-01-09 17:30:00,
2013-01-09 12:45:00,68.5,57.5,30.36,NW,316,2.0,3.0,68,0.00,,---,0.00,VWS V14.01,2013-01-09 17:45:00,
2013-01-09 13:00:00,69.1,56.4,30.35,SW,228,0.0,5.0,64,0.00,,---,0.00,VWS V14.01,2013-01-09 18:00:00,
2013-01-09 13:15:00,69.7,55.2,30.34,East,101,2.0,4.0,60,0.00,,---,0.00,VWS V14.01,2013-01-09 18:15:00,
2013-01-09 13:30:00,69.4,54.9,30.33,SE,136,2.0,4.0,60,0.00,,---,0.00,VWS V14.01,2013-01-09 18:30:00,
2013-01-09 13:45:00,69.6,55.1,30.33,ESE,123,2.0,3.0,60,0.00,,---,0.00,VWS V14.01,2013-01-09 18:45:00,
2013-01-09 14:00:00,69.5,54.6,30.33,SE,130,2.0,3.0,59,0.00,,---,0.00,VWS V14.01,2013-01-09 19:00:00,
2013-01-09 14:15:00,69.6,54.2,30.33,SE,139,2.0,2.0,58,0.00,,---,0.00,VWS V14.01,2013-01-09 19:15:00,
2013-01-09 14:30:00,69.3,54.4,30.32,East,94,1.0,2.0,59,0.00,,---,0.00,VWS V14.01,2013-01-09 19:30:00,
2013-01-09 14:45:00,69.1,54.2,30.32,East,89,1.0,3.0,59,0.00,,---,0.00,VWS V14.01,2013-01-09 19:45:00,
2013-01-09 15:00:00,68.7,54.7,30.32,ESE,108,1.0,2.0,61,0.00,,---,0.00,VWS V14.01,2013-01-09 20:00:00,
2013-01-09 15:15:00,68.7,54.7,30.32,SE,131,0.0,2.0,61,0.00,,---,0.00,VWS V14.01,2013-01-09 20:15:00,
2013-01-09 15:30:00,68.9,55.4,30.33,SE,127,0.0,1.0,62,0.00,,---,0.00,VWS V14.01,2013-01-09 20:30:00,
2013-01-09 15:45:00,68.6,55.1,30.33,SE,125,0.0,1.0,62,0.00,,---,0.00,VWS V14.01,2013-01-09 20:45:00,
2013-01-09 16:00:00,68.5,55.9,30.33,SE,125,0.0,0.0,64,0.00,,---,0.00,VWS V14.01,2013-01-09 21:00:00,
2013-01-09 16:15:00,68.7,55.6,30.33,SE,125,0.0,0.0,63,0.00,,---,0.00,VWS V14.01,2013-01-09 21:15:00,
2013-01-09 16:30:00,68.6,56.4,30.34,SE,125,0.0,0.0,65,0.00,,---,0.00,VWS V14.01,2013-01-09 21:30:00,
2013-01-09 16:45:00,67.7,56.0,30.34,SE,125,0.0,0.0,66,0.00,,---,0.00,VWS V14.01,2013-01-09 21:45:00,
2013-01-09 17:00:00,66.8,55.5,30.34,SE,125,0.0,0.0,67,0.00,,---,0.00,VWS V14.01,2013-01-09 22:00:00,
2013-01-09 17:15:00,66.1,55.7,30.34,SE,125,0.0,0.0,69,0.00,,---,0.00,VWS V14.01,2013-01-09 22:15:00,
2013-01-09 17:30:00,65.2,55.2,30.34,SE,125,0.0,0.0,70,0.00,,---,0.00,VWS V14.01,2013-01-09 22:30:00,
2013-01-09 17:45:00,64.0,54.4,30.34,SE,125,0.0,0.0,71,0.00,,---,0.00,VWS V14.01,2013-01-09 22:45:00,
2013-01-09 18:00:00,63.5,53.9,30.34,SE,125,0.0,0.0,71,0.00,,---,0.00,VWS V14.01,2013-01-09 23:00:00,
2013-01-09 18:15:00,63.0,53.8,30.34,SE,125,0.0,0.0,72,0.00,,---,0.00,VWS V14.01,2013-01-09 23:15:00,
2013-01-09 18:30:00,62.0,53.6,30.34,SE,125,0.0,0.0,74,0.00,,---,0.00,VWS V14.01,2013-01-09 23:30:00,
2013-01-09 18:45:00,61.7,53.7,30.35,SE,125,0.0,0.0,75,0.00,,---,0.00,VWS V14.01,2013-01-09 23:45:00,
2013-01-09 19:00:00,61.8,53.8,30.35,SE,126,0.0,0.0,75,0.00,,---,0.00,VWS V14.01,2013-01-10 00:00:00,
2013-01-09 19:15:00,61.3,53.7,30.35,SE,125,0.0,0.0,76,0.00,,---,0.00,VWS V14.01,2013-01-10 00:15:00,
2013-01-09 19:30:00,60.8,53.9,30.35,SE,125,0.0,0.0,78,0.00,,---,0.00,VWS V14.01,2013-01-10 00:30:00,
2013-01-09 19:45:00,60.3,53.8,30.34,SE,125,0.0,0.0,79,0.00,,---,0.00,VWS V14.01,2013-01-10 00:45:00,
2013-01-09 20:00:00,59.9,53.7,30.35,SE,126,0.0,1.0,80,0.00,,---,0.00,VWS V14.01,2013-01-10 01:00:00,
2013-01-09 20:15:00,59.5,53.7,30.35,SE,125,0.0,0.0,81,0.00,,---,0.00,VWS V14.01,2013-01-10 01:15:00,
2013-01-09 20:30:00,59.4,53.6,30.35,SE,126,0.0,1.0,81,0.00,,---,0.00,VWS V14.01,2013-01-10 01:30:00,
2013-01-09 20:45:00,59.2,53.4,30.35,SE,126,0.0,0.0,81,0.00,,---,0.00,VWS V14.01,2013-01-10 01:45:00,
2013-01-09 21:00:00,59.3,53.5,30.35,SE,126,0.0,0.0,81,0.00,,---,0.00,VWS V14.01,2013-01-10 02:00:00,
2013-01-09 21:15:00,59.3,53.5,30.36,SE,125,0.0,0.0,81,0.00,,---,0.00,VWS V14.01,2013-01-10 02:15:00,
2013-01-09 21:30:00,59.0,53.2,30.36,SE,125,0.0,0.0,81,0.00,,---,0.00,VWS V14.01,2013-01-10 02:30:00,
2013-01-09 21:45:00,58.2,52.7,30.36,SE,125,0.0,0.0,82,0.00,,---,0.00,VWS V14.01,2013-01-10 02:45:00,
2013-01-09 22:00:00,57.4,52.6,30.37,SE,125,0.0,0.0,84,0.00,,---,0.00,VWS V14.01,2013-01-10 03:00:00,
2013-01-09 22:15:00,56.6,52.2,30.36,SE,125,0.0,0.0,85,0.00,,---,0.00,VWS V14.01,2013-01-10 03:15:00,
2013-01-09 22:30:00,55.8,52.3,30.37,SE,126,0.0,1.0,88,0.00,,---,0.00,VWS V14.01,2013-01-10 03:30:00,
2013-01-09 22:45:00,55.5,52.0,30.37,SE,125,0.0,1.0,88,0.00,,---,0.00,VWS V14.01,2013-01-10 03:45:00,
2013-01-09 23:00:00,56.1,52.6,30.37,SE,125,0.0,1.0,88,0.00,,---,0.00,VWS V14.01,2013-01-10 04:00:00,
2013-01-09 23:15:00,56.6,52.8,30.37,SE,125,0.0,0.0,87,0.00,,---,0.00,VWS V14.01,2013-01-10 04:15:00,
2013-01-09 23:30:00,56.9,53.1,30.37,SE,125,0.0,1.0,87,0.00,,---,0.00,VWS V14.01,2013-01-10 04:30:00,
2013-01-09 23:45:00,56.6,52.8,30.37,SE,125,0.0,0.0,87,0.00,,---,0.00,VWS V14.01,2013-01-10 04:45:00,